Showing default

IRIDIUM 158, 43571

Orbit data source: Space-Track

IRIDIUM 158, 43571 is a payload satellite owned by Iridium (US) in LEO that was launched on Wed, 25 Jul 2018 UTC via an FALCON 9 launch vehicle from the Air Force Western Test Range (AFWTR). Payload-class satellites include a variety of spacecraft equipped with specific instruments for various scientific and technological missions. These include communications satellites like Starlink; space stations such as the ISS; scientific satellites like the Hubble; Earth observation satellites from companies like Planet Labs, Umbra, and HawkEye 360; GPS; miniature CubeSats for education and research; and military/defense satellites.

Loading next visibility...
Identifier
43571, 2018-061C
Orbit
LEO
Country
Flag of USUS
Related business
Manufacturer
NGIS SSG Gilbert
Mission
Operational Commercial Communications
Bus & Motor
ELITEBUS, Unknown motor
Mass
860 kg wet, 700 kg dry
Launch date (UTC)
2018-07-25 (7 years ago)
Launch vehicle
FALCON 9
Launch site
Air Force Western Test Range (AFWTR)
Object type
Payload
Rocket body
Debris
Shape & HBR
Trap Box + 2 Pan, 4.8 m
Radar Cross Section
10.154 m², Large (>1 m²)

Expand to show TLE details & history
Last TLE update: 16 hours ago

TLE from 16 hours ago
0 IRIDIUM 158
1 43571U 18061C   25304.84119242  .00000359  00000-0  12105-3 0  9990
2 43571  86.3981 152.2186 0002135  79.6821 280.4615 14.34217414380633
Epoch: 2025-10-31T20:11Z
TLE epoch observation values (Epoch: 2025-10-31T20:11:19.025Z)
Latitude
-0.00004°
Longitude
169.00949°
Altitude
780.442 km
Speed
7.464 km/s
True Right ascension
10h 08m 52s
True Declination
0° 00' 00"
Sunlit
Object was in daylight at epoch
Visualization orbit readout
Latitude
Unknown
Longitude
Unknown
Altitude
Unknown
Speed
Unknown
Apparent Right ascension
Unknown
Apparent Declination
Unknown
Sunlit
N/A
Visualization observer readout
Local Sidereal Time
08:18:39
Azimuth
Unknown
Elevation
Unknown
Doppler factor
Unknown
Orbital elements
Apogee altitude
776.16 km
Perigee altitude
773.106 km
Semi-major axis
7,152.77 km
Eccentricity
0.00021
Inclination
86.3981°
RAAN
152.2186°
Arg. of periapsis
79.6821°
True anomaly
280.43744°
Mean anomaly
280.4615°
Eccentric anomaly
280.44947°
Mean motion
3.58783 °/min
Orbital period
100.34 mins
BSTAR
0.00012105
Loading maneuver chart data...
Computing Atmospheric mass density...
Loading historical data...
Loading historical data...
Loading historical data...
Loading historical data...
Loading historical data...
Loading historical data...
Loading historical data...

Documentation

Showing up to 5 results
|